Lid_Strength_Index
-1 -1 -1 0 -0 -0 0 -0 -2 -0 0 -0 0 0 -0 -1 -1 1 4 2 3 1 2 5 5 5 5 5 3 5 8 10 10 9 8 7 7 7 5 5 4 4 4 3 2
-0 -1 -1 -1 -1 -1 -1 -1 -1 -2 -0 0 0 1 0 -0 2 4 0 -2 -2 -0 4 6 7 6 7 7 5 7 8 9 7 6 7 7 6 6 6 6 5 5 3 2 2
-1 -1 -1 -1 -1 -2 -1 -2 -0 -1 -1 -1 0 1 1 1 6 8 -1 -1 -2 -2 2 3 5 6 9 7 7 7 8 8 7 6 6 7 7 6 6 7 5 5 4 3 3
-1 -1 -1 -1 -1 -1 -1 -2 -2 -0 -1 -1 -1 -0 1 3 15 4 -1 -1 -2 -1 1 4 5 8 10 10 8 10 7 7 6 6 7 7 6 7 6 5 5 4 3 3 4
-1 -1 -1 -2 -1 -1 -1 -1 -2 -2 -0 -1 -1 -1 1 7 9 3 0 -0 1 2 3 4 6 6 9 9 9 9 9 7 7 7 6 7 7 7 7 5 5 5 3 4 3
-1 -1 -2 -1 -1 -1 -0 -1 -1 -2 -2 -0 -2 -1 3 10 4 3 2 2 2 2 3 4 5 5 7 8 9 9 8 8 8 7 7 7 7 7 6 5 5 4 4 3 3
-1 -1 -1 -2 -1 -2 -1 -1 -1 -2 -2 -1 -1 -0 3 6 1 1 2 3 2 2 4 3 3 5 5 7 7 7 10 8 8 7 8 7 9 9 5 6 6 5 4 4 3
-1 -1 -1 -1 -1 -2 -2 -2 -1 -1 -1 -1 -1 1 6 1 -0 2 2 3 2 2 3 3 3 4 6 5 6 8 9 12 8 7 7 8 12 8 6 6 5 5 5 4 3
-0 -1 -1 -1 -1 -2 -2 -2 -1 -1 -0 -1 1 3 7 2 3 1 2 3 3 3 2 3 3 5 6 9 10 10 12 12 11 7 7 8 11 9 8 8 6 5 4 4 4
-0 -1 -1 -1 -1 -1 -2 -1 -1 -1 -0 1 2 6 4 5 4 2 1 1 3 4 5 5 6 8 8 10 14 13 13 11 11 10 8 9 9 8 8 9 9 8 6 5 4
-2 -1 -1 -1 -2 -2 -1 1 4 5 3 6 6 6 6 3 2 4 2 3 4 5 9 7 10 12 11 10 11 12 12 12 11 9 9 9 10 8 7 7 7 7 7 7 6
-2 -2 -2 -1 -2 -2 0 4 4 3 7 4 4 5 4 3 6 4 2 6 7 10 8 10 12 10 8 9 10 11 13 13 11 11 11 10 11 9 8 8 7 7 7 6 5
-2 -2 -1 -2 -2 -1 2 3 1 1 7 6 5 5 5 4 6 6 4 5 8 10 10 11 10 8 9 10 11 11 12 13 13 11 11 12 12 11 9 8 7 7 6 6 6
-2 -2 -2 -1 1 1 3 1 -1 1 11 10 7 6 5 4 8 4 3 5 8 10 9 10 7 9 10 11 10 13 9 10 11 12 15 12 17 13 12 11 10 8 8 7 6
-2 -2 -1 -2 1 3 2 0 0 2 19 9 7 3 4 7 6 6 3 5 9 10 9 11 10 11 12 11 9 11 10 10 10 12 12 13 15 14 12 13 11 10 8 7 6
-2 -2 -2 -0 0 0 -1 1 3 13 18 11 7 8 8 7 7 6 6 4 5 9 9 9 7 8 9 8 9 8 10 10 11 12 17 14 14 16 14 13 11 10 9 9 8
-2 -2 -1 -1 3 -1 -0 4 13 17 10 12 11 9 9 10 9 8 10 10 12 15 15 11 10 8 8 11 9 9 12 17 18 18 18 15 15 16 12 12 11 10 9 8 7
-2 -2 -1 -1 -1 -1 3 11 17 13 12 9 9 9 11 9 9 9 10 12 9 10 12 15 16 11 8 10 12 12 12 15 19 19 18 14 17 15 12 10 10 10 9 9 8
-2 0 1 0 -1 0 7 14 14 12 10 10 10 12 12 10 10 10 10 11 9 10 14 15 15 9 8 8 9 12 15 10 14 17 16 15 14 13 11 11 10 10 9 9 9
1 3 3 -1 -0 4 9 12 11 9 9 9 13 11 14 13 12 12 11 9 10 8 8 12 15 10 9 8 8 10 9 15 14 19 19 16 16 16 13 12 10 9 8 8 8
3 6 3 0 1 8 12 12 10 8 7 9 11 12 11 12 11 12 11 9 8 8 8 10 13 13 11 12 13 12 14 13 12 13 17 18 16 12 11 10 11 9 9 8 7
5 10 3 1 9 9 11 10 9 9 7 8 8 9 11 11 12 13 12 9 6 7 11 9 12 16 14 10 8 10 12 12 16 17 14 14 14 10 10 10 10 9 8 8 7
7 7 3 5 12 13 11 10 9 9 9 9 9 9 8 10 12 10 11 7 7 8 9 9 13 17 15 12 10 13 11 11 11 11 15 17 15 9 9 10 9 9 8 8 9
5 10 6 7 9 10 12 12 11 7 8 8 9 8 9 11 9 11 10 8 7 7 7 8 12 14 16 13 10 13 12 11 12 16 15 14 12 10 10 10 8 7 7 8 8
6 9 7 11 10 9 9 11 12 11 8 7 9 9 9 12 11 11 9 9 8 7 8 9 15 13 12 11 11 12 12 12 13 12 15 12 12 10 8 8 8 7 7 8 8
7 8 7 9 8 8 8 10 10 10 9 10 10 9 8 11 9 11 9 9 10 8 9 9 14 12 14 12 12 14 12 11 12 13 13 11 12 7 6 6 6 7 7 7 7
5 5 5 8 9 10 10 10 10 8 7 7 8 9 10 9 6 6 6 7 8 9 10 11 12 14 16 13 13 16 13 12 11 10 10 13 10 7 8 7 6 6 6 6 5